PulseSat

PulseSat

MOLNIYA 3-27

Last updated on Feb. 16, 2019, 3:05 a.m. UTC

1 16393U 85117A   19046.72632473  .00000259  00000-0  18065+0 0  9993
2 16393  64.6898 213.4551 6454484 264.5424  32.6661  2.12398814248330
UTC
Height (km)
Latitude
Longitude
Inclination
Orbital Period

Next 30 passes for location: Hong Kong

Rise time Rise Azimuth (degrees) Set time Set Azimuth (degrees) Duration Max altitude (degrees)

No matching passes for this satellites

PulseSat

PulseSat is the new satellites software and hardware trackering solution by Pulsely.
Satellite Two Line Element Set source: US Air Force Space Command

Download PulseSat for iOS
© 2017 Pulsely Limited